Portada
METAR-TAF:

METAR-TAF

Aeropuertos :

Base aérea

Tafraoui, Argelia

latitud: 35-32-33N, longitud: 000-31-56W, altitud: 112 m

Observación

El informe se hizo hace 1 hora y 2 minutos, a las 12:00 UTC
Viento 12 kt del suroeste
Temperatura 21°C
Humedad 88%
Presión 1015 hPa
Visibilidad: 7000 m
Escasas nubes a una altura de 1300 ft
Cielo nuboso a una altura de 2300 ft

METAR: DAOL 261200Z 22012KT 7000 FEW013 BKN023 21/19 Q1015

Hora: 14:02 (13:02 UTC)


TAF: falta

Observaciones y pronósticos meteorológicos de más de 4000 aeropuertos (mensajes METAR y TAF).

Los puntos amarillos y rojos representan las estaciones disponibles.

Ponga el ratón en el punto deseado para ver el nombre de la estación.

Haga clic para ver las observaciones y los pronósticos meteorológicos.

Para cambiar el mapa : haga clic en los botones verdes con una cruz de color negro para hacer un zoom, en el botón verde con un guión para alejar o en las flechas verdes para mapas adyacentes.


METAR-TAF: